Hourly Data Report for October 30, 2016

All times are specified in Local Standard Time (LST). Add 1 hour to adjust for Daylight Saving Time where and when it is observed.

OTTAWA INTL A
ONTARIO

45°19'00.000" N
75°40'00.000" W
114.90 m
6106001
71628
YOW

Download Data

Hourly Data (October 2016)
Hourly Data Report for October 30, 2016
Temp Definition
°C
Dew Point Temp Definition
°C
Rel Hum Definition
%
Wind Dir Definition
10's deg

Wind Spd Definition
km/h
Visibility Definition
km
Stn Press Definition
kPa
Hmdx Definition


Wind Chill Definition


Weather Definition


TIME
00:00 Legend Double Dagger 6.3 4.3 87 30 15 24.1 99.86     LegendNANA
01:00 Legend Double Dagger 5.8 4.0 88 29 11 24.1 99.90     Mostly Cloudy
02:00 Legend Double Dagger 5.5 3.5 87 30 14 24.1 99.94     LegendNANA
03:00 Legend Double Dagger 5.1 2.6 84 30 15 24.1 99.97     LegendNANA
04:00 Legend Double Dagger 4.6 2.6 87 30 14 24.1 100.02     Cloudy
05:00 Legend Double Dagger 4.5 2.5 87 32 11 24.1 100.03     LegendNANA
06:00 Legend Double Dagger 4.2 2.2 87 32 14 24.1 100.09     LegendNANA
07:00 Legend Double Dagger 3.9 1.8 86 33 16 24.1 100.10     Mainly Clear
08:00 Legend Double Dagger 3.7 1.4 85 33 14 24.1 100.14     LegendNANA
09:00 Legend Double Dagger 4.4 1.1 79 32 11 24.1 100.17     LegendNANA
10:00 Legend Double Dagger 4.7 0.8 76 33 13 24.1 100.19     Mostly Cloudy
11:00 Legend Double Dagger 5.0 1.3 77 32 17 24.1 100.19     LegendNANA
12:00 Legend Double Dagger 4.8 0.6 74 33 13 24.1 100.16     LegendNANA
13:00 Legend Double Dagger 5.0 0.4 72 32 15 24.1 100.15     Cloudy
14:00 Legend Double Dagger 5.2 0.4 71 32 14 24.1 100.14     LegendNANA
15:00 Legend Double Dagger 5.2 0.0 69 34 19 24.1 100.17     LegendNANA
16:00 Legend Double Dagger 5.2 0.6 72 34 18 24.1 100.23     Mostly Cloudy
17:00 Legend Double Dagger 4.7 0.8 76 31 16 24.1 100.30     LegendNANA
18:00 Legend Double Dagger 4.0 1.7 85 31 14 24.1 100.39     LegendNANA
19:00 Legend Double Dagger 3.8 1.2 83 30 16 24.1 100.45     Mostly Cloudy
20:00 Legend Double Dagger 3.8 0.9 81 32 13 24.1 100.49     LegendNANA
21:00 Legend Double Dagger 3.9 0.6 79 30 18 24.1 100.52     LegendNANA
22:00 Legend Double Dagger 3.7 0.1 77 31 18 24.1 100.57     Mostly Cloudy
23:00 Legend Double Dagger 2.4 -1.0 78 32 17 24.1 100.60     LegendNANA

Notes on Data Quality.

Legend

  • E = Estimated
  • M = Missing
  • NA = Not Available
  • ‡ = Partner data that is not subject to review by the National Climate Archives
Date modified: